Presure
126 120 128 125 117 110 100 99 123 100 104 117 117 126 128 132 136 136 143 148 159 163 179 172 157 148 151 145 172 169 147 101 170 165 167 166 155 157 157 157 154 157 172 175 182
134 127 130 119 121 130 116 103 97 122 135 104 114 117 118 125 129 135 136 142 147 158 166 164 182 200 291 265 147 138 147 147 155 163 164 175 178 180 179 187 190 198 131 119 111
92 105 99 127 130 121 127 127 105 99 118 112 112 104 122 113 127 128 134 137 141 145 153 164 163 174 187 298 246 134 135 136 132 137 140 136 138 142 134 133 126 122 112 124 188
123 116 104 123 124 119 128 118 129 128 102 96 127 102 104 121 125 135 126 135 141 141 144 149 168 181 175 191 296 234 227 195 169 162 160 137 146 134 128 130 122 124 130 113 179
117 109 133 121 113 124 124 124 127 118 136 115 110 137 110 106 110 132 131 125 133 140 141 142 151 164 180 165 180 264 238 222 211 206 191 177 175 166 160 124 155 133 128 171 172
115 112 113 113 115 119 120 130 120 121 126 142 138 133 131 113 116 112 128 119 120 128 136 135 146 145 160 180 179 153 148 194 218 212 208 200 202 187 182 178 187 185 176 163 167
138 135 119 151 115 114 118 117 127 124 117 126 140 136 127 140 120 117 108 126 119 125 133 133 134 135 139 157 177 170 176 165 150 246 237 229 219 212 200 193 188 184 224 219 210
167 166 120 143 118 119 119 138 122 130 126 119 114 136 133 142 127 120 104 109 121 121 130 138 130 132 131 135 147 172 175 176 170 159 161 169 222 217 211 207 197 183 182 178 176
167 164 155 160 127 136 120 132 127 138 133 132 121 121 129 116 143 116 130 114 122 115 127 116 143 134 128 122 126 124 157 159 173 182 174 172 171 171 168 166 163 163 161 159 159
182 189 205 98 122 169 175 125 142 136 129 121 133 122 124 129 141 146 131 142 118 133 121 129 118 117 136 132 131 128 130 139 155 140 141 183 181 180 171 168 166 166 169 172 176
228 235 209 106 252 196 224 104 187 131 129 131 146 136 133 122 128 132 131 132 146 126 142 124 131 128 120 136 119 122 135 119 136 122 145 146 153 166 167 182 157 155 150 150 147
209 204 191 247 216 183 258 209 263 267 154 129 134 137 144 137 136 129 141 126 134 147 124 107 126 129 123 132 133 133 120 118 122 118 130 132 131 135 126 138 137 138 140 140 142
201 179 212 179 229 171 164 191 223 251 129 143 182 125 133 138 140 133 142 152 127 137 151 119 120 130 128 130 126 130 132 131 120 120 122 115 129 132 133 138 133 133 133 120 122
199 204 169 212 168 213 208 179 240 212 231 255 245 134 137 140 161 126 140 144 134 132 138 137 113 115 130 130 131 132 133 133 127 128 132 130 123 126 116 111 114 117 133 115 117
191 197 181 191 198 162 204 222 197 210 183 212 119 195 148 129 269 150 126 141 139 132 163 130 151 118 116 106 109 110 112 108 121 132 129 131 133 116 111 111 124 131 123 108 130
166 173 184 194 192 184 155 203 170 188 207 213 198 92 188 240 162 182 122 134 139 145 142 135 122 134 128 121 129 123 120 124 118 112 117 116 119 122 122 119 123 105 104 130 140
166 161 175 156 178 186 187 160 206 209 209 175 232 193 224 210 107 268 285 136 142 142 143 148 133 122 129 130 126 120 126 112 133 133 134 133 130 136 130 137 126 130 126 127 108
171 166 181 179 177 186 197 192 150 174 189 210 180 187 195 203 247 286 235 179 139 137 135 145 147 135 130 94 128 123 134 150 139 145 110 142 124 125 127 123 132 148 131 104 141
167 169 180 147 171 184 181 200 193 176 88 191 81 107 208 171 207 273 240 271 268 157 135 140 145 145 103 87 101 101 128 129 131 123 103 114 118 136 132 136 112 116 131 138 121
163 163 152 171 174 193 188 193 192 167 173 205 191 171 183 218 198 201 221 249 104 300 250 149 140 152 141 140 138 131 133 127 132 126 132 114 100 125 127 118 119 123 132 151 128
166 168 176 184 182 176 175 178 179 153 185 188 168 211 220 201 192 231 177 246 255 149 195 212 139 144 146 146 127 100 126 132 149 137 131 131 138 121 128 113 107 140 143 132 132
183 173 182 169 190 173 199 177 80 185 191 187 212 186 110 94 189 166 255 191 240 282 256 152 215 141 147 137 94 131 137 127 94 127 135 137 152 97 134 99 146 151 98 168 138
182 176 189 192 195 183 199 216 209 197 198 172 85 97 190 216 163 217 211 167 125 114 245 244 240 226 155 143 141 162 133 111 133 132 128 137 137 144 132 135 116 111 134 130 128
178 198 203 204 202 198 196 218 211 212 201 216 217 208 190 224 208 212 212 213 238 258 256 257 173 128 186 200 83 116 120 134 160 117 142 132 135 142 150 150 137 139 137 151 134
270 210 250 218 213 225 216 202 231 195 220 224 209 217 203 198 210 210 229 200 226 239 252 202 268 282 174 121 170 136 142 86 89 130 91 128 128 90 77 127 151 142 135 131 143
231 443 433 265 250 241 317 232 236 237 234 199 233 227 198 188 206 168 219 236 215 254 188 209 116 267 288 104 149 209 151 148 144 148 178 159 145 138 135 126 154 148 118 135 136
459 449 430 393 293 356 372 265 234 243 250 221 225 177 171 232 223 225 205 186 231 214 237 245 263 264 163 282 137 211 158 187 144 146 156 125 157 149 147 141 154 145 138 137 142
Wind_Speed
21 20 19 18 18 16 12 10 12 6 8 4 6 2 3 6 10 9 12 12 14 14 16 6 4 11 12 13 16 16 12 7 16 16 17 17 21 21 23 24 26 24 22 21 21
24 24 23 22 20 19 18 15 9 15 10 7 3 7 2 1 3 7 6 9 9 12 14 7 13 19 11 15 15 16 14 13 12 12 13 17 18 19 20 22 22 20 10 6 6
9 16 13 24 23 23 21 21 18 12 16 11 14 2 8 4 5 5 5 4 7 7 9 11 6 8 12 12 18 13 11 12 12 13 14 14 13 13 13 12 13 10 7 8 7
33 31 24 26 28 28 26 27 24 23 15 6 18 6 3 10 8 7 6 3 4 6 7 4 10 11 8 13 15 14 14 13 13 14 14 15 15 14 12 13 13 11 8 8 5
37 32 36 35 31 30 32 29 30 28 22 24 14 19 16 7 8 12 10 8 4 4 5 4 4 7 10 5 9 12 9 9 10 12 14 17 17 18 17 13 16 12 12 8 5
42 39 39 38 38 39 36 35 34 32 30 26 25 21 25 17 19 11 14 11 10 7 7 8 3 1 6 10 9 6 5 4 10 14 15 16 17 17 16 16 8 6 8 10 5
50 53 45 58 43 42 40 37 39 38 32 33 29 28 31 29 27 16 13 18 15 14 10 9 7 5 4 5 8 5 5 5 4 12 12 12 11 10 8 4 3 2 2 7 7
75 71 49 56 48 48 46 49 43 44 41 36 30 33 36 32 34 26 13 15 20 19 16 12 11 9 7 5 1 5 5 6 4 2 8 10 17 17 16 13 12 13 12 11 12
78 75 68 73 55 58 49 52 50 50 48 45 39 36 41 25 37 31 31 23 25 18 22 11 15 13 11 9 7 6 6 6 9 5 5 8 14 17 17 18 17 15 15 14 13
77 75 68 34 46 72 73 53 59 55 50 43 48 42 41 45 43 42 42 36 27 29 24 25 16 13 16 13 10 8 4 5 8 5 3 7 11 16 19 18 15 13 9 8 7
39 38 54 44 33 69 57 38 76 57 53 53 54 51 50 42 48 45 45 43 40 33 33 29 25 23 17 20 8 9 12 6 7 3 6 11 10 14 16 17 18 20 19 15 13
43 51 54 32 49 38 33 49 40 41 61 55 57 54 53 55 52 46 47 43 48 44 30 20 30 29 24 24 24 21 12 9 10 5 8 7 5 9 3 10 10 12 12 13 10
48 60 44 56 39 55 54 44 52 44 57 60 52 54 57 59 56 54 54 53 44 49 45 31 29 38 28 29 24 24 23 23 17 12 12 4 11 10 8 10 9 10 11 14 12
50 51 65 48 63 47 49 61 45 52 49 41 49 64 63 61 64 51 60 58 56 54 49 44 33 28 39 32 30 29 26 27 25 24 23 18 13 11 9 11 9 8 6 13 10
52 54 60 56 52 70 54 51 50 51 61 58 52 53 54 56 59 59 54 62 64 56 57 49 51 41 37 22 22 24 25 20 25 28 25 22 20 16 17 16 8 6 3 11 4
63 58 60 63 60 58 68 56 65 58 54 56 68 31 55 57 58 59 57 61 65 66 66 56 49 50 56 36 41 34 34 34 27 25 23 21 20 18 18 17 12 15 13 9 13
68 65 66 72 63 66 66 67 60 58 60 67 57 60 53 49 47 50 58 66 67 69 71 70 56 46 56 51 41 43 40 27 40 34 26 27 25 26 25 23 17 17 16 14 10
78 69 69 72 72 75 73 67 64 62 62 65 65 63 64 57 47 48 59 63 70 72 70 73 72 62 59 33 46 48 49 55 43 43 28 30 28 28 28 21 21 25 20 16 25
83 78 81 64 76 84 70 73 71 65 15 69 28 36 64 62 58 50 58 54 64 77 72 76 78 73 34 18 35 27 49 50 34 26 34 35 28 42 27 32 28 23 26 28 17
87 77 65 81 84 90 83 82 80 62 73 76 59 68 74 61 65 60 64 49 42 52 81 82 78 81 70 69 63 46 65 41 48 42 46 36 33 37 28 29 27 27 31 38 25
91 92 98 103 101 84 69 82 72 55 85 73 60 74 75 52 64 66 66 48 59 67 68 95 78 81 74 65 57 36 45 55 55 54 50 47 50 31 36 29 29 35 39 32 32
106 99 106 79 104 73 102 77 21 87 97 72 91 62 29 22 64 70 58 79 55 56 70 78 102 78 83 70 23 53 55 37 30 55 62 55 54 28 51 28 41 43 26 44 39
115 106 114 115 116 88 108 107 107 102 100 78 23 31 66 87 67 68 66 73 49 41 73 68 70 102 85 74 60 70 67 53 65 71 54 60 65 59 55 53 29 32 35 35 31
86 109 127 127 124 116 105 114 111 110 87 105 101 91 67 93 62 65 68 71 63 62 63 63 70 58 89 102 12 48 47 71 78 41 71 60 68 66 59 64 55 50 41 48 34
127 129 133 133 129 130 123 95 119 88 108 108 94 94 86 71 85 67 80 84 78 74 65 82 67 68 73 52 80 64 66 16 20 60 22 54 48 24 19 41 58 55 45 39 46
143 59 60 131 133 124 117 125 123 122 116 84 106 103 77 62 89 87 77 83 76 74 75 74 62 69 73 41 74 108 77 71 70 73 79 79 72 75 56 38 61 49 40 47 49
47 54 60 65 98 72 67 123 120 120 117 110 108 60 70 96 87 95 83 83 79 82 67 62 68 68 66 74 67 100 71 93 68 72 74 52 81 90 81 56 69 47 45 53 58
Wind_Direction
223 232 228 229 242 253 296 321 247 23 357 315 323 37 70 77 77 71 57 62 44 43 33 47 137 180 177 194 222 228 245 250 239 235 243 237 233 241 243 246 247 251 261 271 276
240 234 239 246 242 236 255 282 305 251 231 339 293 315 327 205 135 95 77 66 61 44 33 38 31 37 183 198 195 204 202 206 220 232 238 253 254 256 263 264 265 265 223 270 307
252 255 264 235 238 244 240 245 267 282 259 284 290 107 267 302 219 200 137 119 92 76 39 37 49 39 51 203 194 206 213 212 221 215 219 224 224 224 227 221 218 223 255 258 243
247 251 269 244 243 250 236 249 244 242 271 218 248 266 302 255 230 188 225 168 131 109 99 42 39 25 59 49 183 199 210 224 239 243 239 231 232 236 244 241 238 240 267 294 223
244 258 249 245 255 245 243 239 238 252 234 252 248 230 267 261 264 217 205 236 201 159 123 98 17 25 25 124 60 166 212 223 228 233 245 251 255 247 246 254 251 256 264 258 248
247 251 250 254 251 248 246 238 246 248 243 235 226 227 232 262 258 244 228 251 249 212 178 163 35 283 18 32 42 168 167 137 218 231 239 243 235 250 241 239 224 217 236 222 241
255 256 249 260 253 257 251 248 240 240 249 242 233 229 241 234 253 236 242 234 252 244 214 193 188 221 213 9 38 44 70 120 161 182 178 181 190 195 187 171 155 174 91 135 126
267 266 250 252 252 251 253 247 247 241 239 247 254 228 228 235 237 247 241 252 245 251 238 218 207 207 222 226 194 76 79 104 133 258 268 165 117 110 114 118 112 99 102 110 119
263 263 260 263 248 251 256 248 248 252 241 240 249 245 237 231 232 240 236 249 243 256 242 234 211 206 228 211 228 204 138 140 119 135 175 178 148 131 126 122 121 115 120 128 130
266 268 266 264 261 258 258 253 249 243 246 251 243 245 245 240 233 233 237 229 249 230 248 238 236 223 207 229 235 248 243 226 164 254 155 139 138 131 131 126 121 116 122 128 122
271 276 268 259 274 264 267 259 255 253 250 249 245 242 239 249 243 238 239 237 227 247 219 245 231 229 241 213 253 249 225 278 215 309 183 144 141 125 120 126 120 120 120 115 121
270 267 268 290 272 263 285 260 266 266 249 248 249 243 242 239 236 243 236 244 234 230 239 220 237 236 234 220 221 220 259 265 259 282 250 239 229 199 162 145 136 125 124 126 131
269 262 280 264 283 264 265 269 264 265 251 242 252 246 242 241 236 239 234 232 240 235 242 233 232 238 228 224 232 228 225 226 257 244 250 212 230 228 200 179 170 147 141 114 120
291 292 265 284 263 283 273 263 275 263 254 277 257 242 241 241 243 236 237 235 239 239 240 234 235 231 238 228 223 228 228 229 231 238 234 232 227 221 188 182 177 168 170 136 123
289 292 277 281 280 262 282 286 259 269 259 261 241 250 244 242 249 239 241 237 240 243 237 239 229 244 253 217 228 230 226 217 229 230 235 239 244 216 213 209 240 270 227 162 295
272 281 285 286 285 273 262 278 259 256 266 264 261 256 246 250 245 246 240 239 240 238 237 240 237 225 240 232 229 231 232 232 215 213 220 226 230 239 236 234 245 212 206 271 258
277 273 280 262 277 279 272 256 280 275 277 251 272 256 247 257 233 253 251 236 235 237 238 235 238 232 236 231 226 240 236 220 236 230 233 235 240 239 248 248 243 265 248 260 216
283 277 280 281 278 280 275 271 256 248 267 268 252 254 245 254 253 270 245 238 233 234 241 238 236 232 236 228 224 243 241 222 237 235 214 238 227 239 238 231 261 233 261 221 242
281 278 280 266 276 279 276 271 273 270 181 271 239 236 266 247 252 268 243 251 242 230 234 238 237 236 223 239 228 233 246 243 244 232 220 239 238 253 241 249 220 231 269 261 255
278 276 272 277 276 273 270 273 273 262 260 268 255 251 246 263 251 235 238 248 228 249 233 228 238 238 233 234 238 229 230 248 250 240 233 233 219 251 242 206 230 249 262 250 258
278 277 275 273 274 275 274 262 272 263 271 272 250 263 264 258 242 238 237 238 239 232 235 225 235 237 238 234 233 238 230 238 231 247 246 240 238 239 250 208 218 236 249 260 266
273 279 274 275 272 274 268 274 272 270 269 271 264 262 241 245 234 239 254 242 239 246 236 229 221 235 235 234 218 234 241 222 238 249 251 250 240 226 257 213 244 242 229 249 262
275 275 273 270 270 276 268 264 262 265 265 266 258 261 251 264 237 259 231 240 235 230 236 237 235 224 233 240 239 234 239 228 236 240 247 248 251 237 244 248 236 243 257 256 270
283 275 269 268 270 273 272 262 263 261 262 260 258 264 252 252 263 249 253 241 248 248 242 241 233 232 227 223 153 222 219 234 230 241 242 247 252 252 238 230 251 258 262 256 263
275 276 263 267 270 262 264 264 255 265 257 252 260 252 257 263 245 256 255 230 247 246 243 229 241 239 232 227 224 234 234 208 231 236 229 238 247 219 181 247 240 249 265 261 263
276 254 252 259 257 261 257 258 252 251 251 262 249 247 262 236 238 231 258 250 237 250 237 238 227 238 236 214 234 223 236 234 235 238 225 237 252 258 254 202 264 251 259 266 264
260 252 243 246 259 247 237 246 257 252 244 248 251 234 254 239 236 248 248 226 247 229 248 243 241 240 234 237 230 226 226 228 235 237 236 236 236 245 252 258 259 259 260 267 270